User: anonymous   Login
Location: Unspecified
(0.0000°N, 0.0000°E)
Time: 11:48:20
(UTC+00:00)
Language:

URSA MAIOR - Orbit

View from above orbital plane
View from above orbital plane
View from above satellite
View from above satellite

Ground track
Ground track

The orbit data is extracted from the following two-line orbital elements,

1 42776U 17036M   18168.94081158 +.00000685 +00000-0 +34086-4 0  9997
2 42776 097.4007 228.3162 0015632 065.6000 294.6865 15.20829669054617
Epoch (UTC): 17 June 2018 22:34:46
Eccentricity: 0.0015632
inclination: 97.4007°
perigee height: 492 km
apogee height: 514 km
right ascension of ascending node: 228.3162°
argument of perigee: 65.6000°
revolutions per day: 15.20829669
mean anomaly at epoch: 294.6865°
orbit number at epoch: 5461

The dashed part of the orbit path shows where the satellite is in the earth's shadow,  

DLR